timestamp,surface_pressure_avg,surface_temp_avg,battery_voltage,lat,long
2020-08-15 00:09:01+00:00,250.7197,18.97,12.81,47.84626,-54.09684
2020-08-15 00:19:01+00:00,250.7463,18.8,12.73,47.84626,-54.09684
2020-08-15 00:29:01+00:00,245.5047,18.7,12.73,47.84626,-54.09684
2020-08-15 00:39:01+00:00,238.8931,18.7,12.73,47.84626,-54.09684
2020-08-15 00:49:01+00:00,238.033,18.6,12.73,47.84626,-54.09684
2020-08-15 00:59:01+00:00,237.6614,18.6,12.73,47.84626,-54.09684
2020-08-15 01:09:01+00:00,232.9114,18.6,12.73,47.84626,-54.09684
2020-08-15 01:19:01+00:00,227.5281,18.5,12.73,47.84626,-54.09684
2020-08-15 01:29:01+00:00,228.6213,18.46,12.73,47.84626,-54.09684
2020-08-15 01:39:01+00:00,228.7797,18.4,12.73,47.84626,-54.09684
2020-08-15 01:49:01+00:00,225.8697,18.39,12.73,47.84626,-54.09684
2020-08-15 01:59:01+00:00,227.653,18.38,12.73,47.84626,-54.09684
2020-08-15 02:09:01+00:00,229.0864,18.39,12.73,47.84626,-54.09684
2020-08-15 02:19:01+00:00,224.5314,18.4,12.73,47.84626,-54.09684
2020-08-15 02:29:01+00:00,221.5865,18.39,12.73,47.84626,-54.09684
2020-08-15 02:39:01+00:00,223.2948,18.3,12.73,47.84626,-54.09684
2020-08-15 02:49:01+00:00,224.293,18.3,12.73,47.84626,-54.09684
2020-08-15 02:59:01+00:00,223.7696,18.28,12.73,47.84626,-54.09684
2020-08-15 03:09:01+00:00,224.623,18.2,12.73,47.84626,-54.09684
2020-08-15 03:19:01+00:00,225.4499,18.1,12.73,47.84626,-54.09684
2020-08-15 03:29:01+00:00,224.8632,18.07,12.73,47.84626,-54.09684
2020-08-15 03:39:01+00:00,225.6048,18.0,12.73,47.84626,-54.09684
2020-08-15 03:49:01+00:00,229.4148,18.0,12.73,47.84626,-54.09684
2020-08-15 03:59:01+00:00,232.2397,18.0,12.73,47.84626,-54.09684
2020-08-15 04:09:01+00:00,232.0315,18.0,12.73,47.84626,-54.09684
2020-08-15 04:19:01+00:00,232.9065,17.95,12.73,47.84626,-54.09684
2020-08-15 04:29:01+00:00,237.7664,17.9,12.73,47.84626,-54.09684
2020-08-15 04:39:01+00:00,242.4114,17.9,12.73,47.84626,-54.09684
2020-08-15 04:49:01+00:00,244.6379,17.9,12.73,47.84626,-54.09684
2020-08-15 04:59:01+00:00,245.8581,17.8,12.73,47.84626,-54.09684
2020-08-15 05:09:01+00:00,251.7747,17.8,12.73,47.84626,-54.09684
2020-08-15 05:19:01+00:00,260.2165,17.87,12.73,47.84626,-54.09684
2020-08-15 05:29:01+00:00,266.7097,17.89,12.73,47.84626,-54.09684
2020-08-15 05:39:01+00:00,266.4716,17.9,12.73,47.84626,-54.09684
2020-08-15 05:49:01+00:00,269.2281,17.8,12.73,47.84626,-54.09684
2020-08-15 05:59:01+00:00,275.0547,17.8,12.73,47.84626,-54.09684
2020-08-15 06:09:01+00:00,279.2481,17.7,12.73,47.84626,-54.09684
2020-08-15 06:19:01+00:00,279.4631,17.7,12.73,47.84626,-54.09684
2020-08-15 06:29:01+00:00,285.8214,17.77,12.73,47.84626,-54.09684
2020-08-15 06:39:01+00:00,290.7664,17.8,12.73,47.84626,-54.09684
2020-08-15 06:49:01+00:00,290.1281,17.8,12.73,47.84626,-54.09684
2020-08-15 06:59:01+00:00,292.1097,17.9,12.73,47.84626,-54.09684
2020-08-15 07:09:01+00:00,297.833,17.9,12.73,47.84626,-54.09684
2020-08-15 07:19:01+00:00,298.8147,17.7,12.65,47.84626,-54.09684
2020-08-15 07:29:01+00:00,295.9398,17.9,12.65,47.84626,-54.09684
2020-08-15 07:39:01+00:00,297.5248,17.22,12.65,47.84626,-54.09684
2020-08-15 07:49:01+00:00,301.2214,16.7,12.65,47.84626,-54.09684
2020-08-15 07:59:01+00:00,301.5581,16.7,12.65,47.84626,-54.09684
2020-08-15 08:09:01+00:00,300.778,16.7,12.65,47.84626,-54.09684
2020-08-15 08:19:01+00:00,302.1296,16.6,12.65,47.84626,-54.09684
2020-08-15 08:29:01+00:00,302.6497,16.7,12.65,47.84626,-54.09684
2020-08-15 08:39:01+00:00,301.0531,16.95,12.65,47.84626,-54.09684
2020-08-15 08:49:01+00:00,302.7031,16.42,12.65,47.84626,-54.09684
2020-08-15 08:59:01+00:00,304.7497,16.2,12.65,47.84626,-54.09684
2020-08-15 09:09:01+00:00,300.3013,16.7,12.65,47.84626,-54.09684
2020-08-15 09:19:01+00:00,296.0765,16.99,12.73,47.84626,-54.09684
2020-08-15 09:29:01+00:00,297.0697,16.8,12.73,47.84626,-54.09684
2020-08-15 09:39:01+00:00,295.7614,16.74,12.73,47.84626,-54.09684
2020-08-15 09:49:01+00:00,288.6164,16.9,12.73,47.84626,-54.09684
2020-08-15 09:59:01+00:00,284.8098,16.8,12.73,47.84626,-54.09684
2020-08-15 10:09:01+00:00,282.0063,16.79,12.73,47.84626,-54.09684
2020-08-15 10:19:01+00:00,275.9764,16.8,13.6,47.84626,-54.09684
2020-08-15 10:29:01+00:00,272.4081,17.3,13.6,47.84626,-54.09684
2020-08-15 10:39:01+00:00,272.5648,16.86,13.6,47.84626,-54.09684
2020-08-15 10:49:01+00:00,267.0631,17.18,13.6,47.84626,-54.09684
2020-08-15 10:59:01+00:00,260.3848,17.29,13.6,47.84626,-54.09684
2020-08-15 11:09:01+00:00,259.8497,17.42,13.6,47.84626,-54.09684
2020-08-15 11:19:01+00:00,259.0564,17.79,14.32,47.84626,-54.09684
2020-08-15 11:29:01+00:00,250.9948,17.41,14.32,47.84626,-54.09684
2020-08-15 11:39:01+00:00,244.088,17.42,14.32,47.84626,-54.09684
2020-08-15 11:49:01+00:00,241.5364,17.34,14.32,47.84626,-54.09684
2020-08-15 11:59:01+00:00,237.0397,17.04,14.32,47.84626,-54.09684
2020-08-15 12:09:01+00:00,234.3431,16.68,14.32,47.84626,-54.09684
2020-08-15 12:19:01+00:00,231.6931,16.8,14.48,47.84626,-54.09684
2020-08-15 12:29:01+00:00,228.9531,17.16,14.48,47.84626,-54.09684
2020-08-15 12:39:01+00:00,226.1215,17.3,14.48,47.84626,-54.09684
2020-08-15 12:49:01+00:00,224.5198,17.19,14.48,47.84626,-54.09684
2020-08-15 12:59:01+00:00,223.5465,17.26,14.48,47.84626,-54.09684
2020-08-15 13:09:01+00:00,223.1846,17.4,14.48,47.84626,-54.09684
2020-08-15 13:19:01+00:00,223.3914,17.2,14.48,47.84626,-54.09684
2020-08-15 13:29:01+00:00,219.6964,17.3,14.48,47.84626,-54.09684
2020-08-15 13:39:01+00:00,214.8148,17.2,14.48,47.84626,-54.09684
2020-08-15 13:49:01+00:00,213.7031,16.96,14.48,47.84626,-54.09684
2020-08-15 13:59:01+00:00,214.4532,16.82,14.48,47.84626,-54.09684
2020-08-15 14:09:01+00:00,212.9231,16.92,14.48,47.84626,-54.09684
2020-08-15 14:19:01+00:00,210.0532,17.0,14.4,47.84626,-54.09684
2020-08-15 14:29:01+00:00,210.4832,17.1,14.4,47.84626,-54.09684
2020-08-15 14:39:01+00:00,211.4766,17.32,14.4,47.84626,-54.09684
2020-08-15 14:49:01+00:00,210.8482,17.4,14.4,47.84626,-54.09684
2020-08-15 14:59:01+00:00,212.2165,17.3,14.4,47.84626,-54.09684
2020-08-15 15:09:01+00:00,215.2982,17.2,14.4,47.84626,-54.09684
2020-08-15 15:19:01+00:00,215.1981,17.1,14.32,47.84626,-54.09684
2020-08-15 15:29:01+00:00,215.6031,17.0,14.32,47.84626,-54.09684
2020-08-15 15:39:01+00:00,217.613,17.1,14.32,47.84626,-54.09684
2020-08-15 15:49:01+00:00,217.9749,17.1,14.32,47.84626,-54.09684
2020-08-15 15:59:01+00:00,216.5249,17.0,14.32,47.84626,-54.09684
2020-08-15 16:09:01+00:00,218.0798,16.91,14.32,47.84626,-54.09684
2020-08-15 16:19:01+00:00,223.1481,16.99,14.24,47.84626,-54.09684
2020-08-15 16:29:01+00:00,227.8615,16.89,14.24,47.84626,-54.09684
2020-08-15 16:39:01+00:00,230.4965,16.7,14.24,47.84626,-54.09684
2020-08-15 16:49:01+00:00,233.1314,16.7,14.24,47.84626,-54.09684
2020-08-15 16:59:01+00:00,237.6698,16.7,14.24,47.84626,-54.09684
2020-08-15 17:09:01+00:00,242.7697,16.75,14.24,47.84626,-54.09684
2020-08-15 17:19:01+00:00,246.5764,16.76,14.08,47.84626,-54.09684
2020-08-15 17:29:01+00:00,250.2881,16.79,14.08,47.84626,-54.09684
2020-08-15 17:39:01+00:00,254.1364,16.8,14.08,47.84626,-54.09684
2020-08-15 17:49:01+00:00,259.9514,16.79,14.08,47.84626,-54.09684
2020-08-15 17:59:01+00:00,266.2131,16.75,14.08,47.84626,-54.09684
2020-08-15 18:09:01+00:00,271.413,16.7,14.08,47.84626,-54.09684
2020-08-15 18:19:01+00:00,276.0381,16.6,13.92,47.84626,-54.09684
2020-08-15 18:29:01+00:00,285.2081,16.49,13.92,47.84626,-54.09684
2020-08-15 18:39:01+00:00,290.2664,16.5,13.92,47.84626,-54.09684
2020-08-15 18:49:01+00:00,292.2297,16.64,13.92,47.84626,-54.09684
2020-08-15 18:59:01+00:00,299.0563,16.6,13.92,47.84626,-54.09684
2020-08-15 19:09:01+00:00,308.7413,16.6,13.92,47.84626,-54.09684
2020-08-15 19:19:01+00:00,311.4246,16.64,13.68,47.84626,-54.09684
2020-08-15 19:29:01+00:00,309.9047,16.77,13.68,47.84626,-54.09684
2020-08-15 19:39:01+00:00,313.0346,16.8,13.68,47.84626,-54.09684
2020-08-15 19:49:01+00:00,319.3796,16.78,13.68,47.84626,-54.09684
2020-08-15 19:59:01+00:00,319.9597,16.7,13.68,47.84626,-54.09684
2020-08-15 20:09:01+00:00,317.5864,16.83,13.68,47.84626,-54.09684
2020-08-15 20:19:01+00:00,321.6296,16.9,13.6,47.84626,-54.09684
2020-08-15 20:29:01+00:00,326.1478,16.9,13.6,47.84626,-54.09684
2020-08-15 20:39:01+00:00,326.738,16.96,13.6,47.84626,-54.09684
2020-08-15 20:49:01+00:00,325.443,17.01,13.6,47.84626,-54.09684
2020-08-15 20:59:01+00:00,331.5413,17.02,13.6,47.84626,-54.09684
2020-08-15 21:09:01+00:00,338.163,17.03,13.6,47.84626,-54.09684
2020-08-15 21:19:01+00:00,336.8946,17.16,13.53,47.84626,-54.09684
2020-08-15 21:29:01+00:00,333.9562,17.23,13.53,47.84626,-54.09684
2020-08-15 21:39:01+00:00,334.1245,17.2,13.53,47.84626,-54.09684
2020-08-15 21:49:01+00:00,337.6661,17.2,13.53,47.84626,-54.09684
2020-08-15 21:59:01+00:00,334.2546,17.21,13.53,47.84626,-54.09684
2020-08-15 22:09:01+00:00,329.3864,17.29,13.53,47.84626,-54.09684
2020-08-15 22:19:01+00:00,325.5447,17.2,13.29,47.84626,-54.09684
2020-08-15 22:29:01+00:00,324.5897,16.9,13.29,47.84626,-54.09684
2020-08-15 22:39:01+00:00,320.3014,16.99,13.29,47.84626,-54.09684
2020-08-15 22:49:01+00:00,311.0946,17.19,13.29,47.84626,-54.09684
2020-08-15 22:59:01+00:00,307.4363,17.2,13.29,47.84626,-54.09684
2020-08-15 23:09:01+00:00,306.228,17.11,13.29,47.84626,-54.09684
2020-08-15 23:19:01+00:00,300.708,17.1,12.97,47.84626,-54.09684
2020-08-15 23:29:01+00:00,287.8297,17.0,12.97,47.84626,-54.09684
2020-08-15 23:39:01+00:00,283.1429,16.99,12.97,47.84626,-54.09684
2020-08-15 23:49:01+00:00,283.9748,17.03,12.97,47.84626,-54.09684
2020-08-15 23:59:01+00:00,276.8847,17.11,12.97,47.84626,-54.09684
